TimeEDT,TemperatureF,Dew PointF,Humidity,Sea Level PressureIn,VisibilityMPH,Wind Direction,Wind SpeedMPH,Gust SpeedMPH,PrecipitationIn,Events,Conditions,WindDirDegrees,DateUTC
12:53 AM,50.0,43.0,77,29.99,10.0,Calm,Calm,-,N/A,,Clear,0,2013-04-08 04:53:00
1:53 AM,46.9,42.1,83,29.98,10.0,Calm,Calm,-,N/A,,Clear,0,2013-04-08 05:53:00
2:53 AM,45.0,41.0,86,29.97,10.0,Calm,Calm,-,N/A,,Clear,0,2013-04-08 06:53:00
3:53 AM,43.0,39.9,89,29.97,10.0,Calm,Calm,-,N/A,,Clear,0,2013-04-08 07:53:00
4:53 AM,41.0,39.0,93,29.99,10.0,Calm,Calm,-,N/A,,Clear,0,2013-04-08 08:53:00
5:53 AM,39.0,37.9,96,30.00,9.0,Calm,Calm,-,N/A,,Clear,0,2013-04-08 09:53:00
6:53 AM,39.9,37.9,93,30.03,10.0,Calm,Calm,-,N/A,,Clear,0,2013-04-08 10:53:00
7:53 AM,43.0,41.0,93,30.04,10.0,Calm,Calm,-,N/A,,Clear,0,2013-04-08 11:53:00
8:53 AM,51.1,44.1,77,30.06,10.0,Calm,Calm,-,N/A,,Clear,0,2013-04-08 12:53:00
9:53 AM,60.1,43.0,53,30.06,10.0,Calm,Calm,-,N/A,,Clear,0,2013-04-08 13:53:00
10:53 AM,66.0,42.1,42,30.06,10.0,Variable,3.5,-,N/A,,Clear,0,2013-04-08 14:53:00
11:53 AM,69.1,39.9,35,30.05,10.0,Variable,5.8,-,N/A,,Clear,0,2013-04-08 15:53:00
12:53 PM,72.0,39.0,30,30.03,10.0,Variable,6.9,-,N/A,,Clear,0,2013-04-08 16:53:00
1:53 PM,73.9,37.0,26,30.01,10.0,Variable,3.5,-,N/A,,Clear,0,2013-04-08 17:53:00
2:53 PM,75.0,39.0,27,29.99,10.0,Variable,6.9,-,N/A,,Clear,0,2013-04-08 18:53:00
3:53 PM,75.0,41.0,29,29.97,10.0,South,8.1,-,N/A,,Clear,180,2013-04-08 19:53:00
4:53 PM,75.0,44.1,33,29.96,10.0,South,4.6,-,N/A,,Partly Cloudy,190,2013-04-08 20:53:00
5:53 PM,75.0,44.1,33,29.95,10.0,Variable,4.6,-,N/A,,Clear,0,2013-04-08 21:53:00
6:53 PM,71.1,46.9,42,29.96,9.0,SSE,9.2,18.4,N/A,,Partly Cloudy,160,2013-04-08 22:53:00
7:53 PM,68.0,46.9,47,29.97,10.0,SE,4.6,-,N/A,,Clear,140,2013-04-08 23:53:00
8:53 PM,66.0,46.9,50,29.99,9.0,SE,4.6,-,N/A,,Clear,140,2013-04-09 00:53:00
9:53 PM,64.0,46.9,54,29.98,10.0,Variable,3.5,-,N/A,,Clear,0,2013-04-09 01:53:00
10:53 PM,63.0,46.0,54,29.98,10.0,SSE,3.5,-,N/A,,Clear,150,2013-04-09 02:53:00
11:53 PM,61.0,46.0,58,29.96,10.0,Calm,Calm,-,N/A,,Scattered Clouds,0,2013-04-09 03:53:00